GLOBALSTAR M023 [-]

Last updated on Fri Nov 22 2019 04:19:46 GMT+0000 (Coordinated Universal Time)

1 25621U 99004A 19324.96934073 -.00000085 00000-0 10203-3 0 9991 2 25621 52.0085 129.8271 0009238 314.8806 215.0961 12.62380386958768
UTC large
Height (km)
Speed (km/s)
/
Latitude / Longitude
Inclination (degrees)
Orbital Period (minutes)
Azimuth
Elevation
Range (km)
Doppler Factor

Next 0 passes for location: London (51.5072 / 0.1276)

Sorry there are no passes over London.
GLOBALSTAR M023 [-]